Wind_Speed
2 1 1 2 2 2 4 1 6 9 10 9 8 9 10 10 9 9 9 9 9 9 9 9 10 9 9 8 8 7 7 6 6 6 6 6 5 5 5 5 5 5 5 6 5 5 5 5 5
3 2 2 1 1 2 1 4 8 10 10 10 9 10 10 11 10 10 10 10 10 10 9 10 10 9 9 9 9 8 8 7 7 6 6 6 6 6 6 6 5 6 6 5 6 5 5 6 6
4 3 2 1 1 2 3 6 9 11 10 10 10 10 11 11 11 10 10 10 10 10 10 9 10 10 9 10 10 9 9 9 9 8 7 7 7 6 6 6 7 6 6 6 6 6 6 6 7
5 4 3 2 1 5 6 7 9 11 11 10 11 12 12 13 12 12 11 10 10 10 11 11 11 10 10 10 10 10 10 10 10 9 8 8 8 8 7 8 8 8 7 7 7 7 7 7 7
5 4 4 4 4 6 7 9 11 11 11 11 12 13 13 13 13 12 12 11 12 12 12 12 11 11 10 10 11 11 11 11 11 11 10 10 10 9 9 8 8 8 8 8 8 8 8 7 7
5 4 5 5 4 7 8 10 12 12 11 12 12 13 13 14 13 12 12 13 13 13 12 12 12 12 11 11 11 11 12 12 12 12 12 11 11 10 10 10 10 9 9 9 9 9 8 8 8
7 7 7 6 6 9 10 11 13 14 12 12 13 14 14 13 13 12 13 14 13 13 13 12 12 11 11 11 11 11 11 12 13 13 12 11 11 11 11 11 10 10 10 10 10 9 9 10 9
7 9 8 7 8 11 12 11 14 15 13 13 13 14 15 14 15 14 14 15 14 14 13 13 12 11 11 11 11 11 12 12 12 13 13 12 11 11 11 11 11 10 10 10 10 10 10 10 10
9 9 8 6 10 12 13 12 13 15 14 14 14 15 16 15 15 15 14 15 15 15 13 13 12 12 12 12 12 12 12 12 12 13 13 12 11 11 11 12 11 11 10 10 10 10 10 11 10
9 9 8 9 12 13 13 14 14 16 15 15 16 16 17 15 16 16 15 15 15 15 14 12 11 13 12 12 12 12 11 11 12 13 13 12 12 12 11 12 11 11 11 10 10 10 10 10 11
10 10 10 11 14 14 15 15 15 16 15 15 17 15 17 17 16 17 15 15 15 15 14 13 12 13 13 13 13 12 12 12 13 13 13 12 12 11 11 11 12 12 12 12 12 11 11 11 11
12 12 13 14 15 15 15 16 14 16 16 16 18 17 17 18 17 16 16 16 15 14 14 14 14 13 14 14 13 13 12 13 13 13 12 12 11 11 12 12 11 11 11 11 12 13 12 12 12
14 13 13 14 14 14 14 15 15 17 17 18 17 17 19 19 19 18 17 17 15 15 15 15 15 15 14 15 14 13 12 12 13 12 12 12 11 10 11 11 12 12 12 12 12 13 14 14 13
13 14 14 14 14 14 15 15 16 16 17 18 18 19 19 18 19 19 18 17 17 16 15 14 14 15 15 15 14 13 13 13 13 12 12 11 11 11 11 12 12 12 13 13 12 12 13 13 13
12 13 14 14 15 15 16 15 16 18 17 17 18 18 18 18 19 19 18 18 17 16 15 15 15 15 15 15 15 15 14 13 13 12 12 11 11 12 11 12 13 12 12 13 13 13 13 13 13
12 13 15 15 16 15 16 17 17 19 18 17 18 17 18 18 19 19 18 17 17 16 15 15 15 15 15 15 15 15 14 13 12 11 11 11 11 11 12 13 13 13 13 14 14 14 14 13 13
12 13 15 15 16 16 18 19 18 18 18 19 19 18 18 19 19 19 17 17 17 15 14 15 15 15 15 15 15 15 14 13 12 11 11 12 11 12 12 13 13 13 13 13 13 13 13 13 13
13 13 14 16 17 17 19 20 18 18 18 19 19 18 18 18 19 18 17 16 16 15 15 14 15 15 15 15 14 14 14 13 12 12 12 12 12 12 12 13 13 13 13 13 13 14 13 13 13
15 15 15 17 18 18 19 19 18 17 18 19 19 19 19 17 18 17 16 15 15 14 14 14 15 14 13 13 14 13 13 12 12 12 12 12 12 12 12 12 13 13 13 13 13 13 14 13 13
17 17 17 17 17 18 18 18 17 17 18 19 18 18 17 17 18 17 16 15 15 15 15 14 14 14 13 13 13 12 12 12 12 12 12 13 13 13 13 12 13 13 13 13 13 13 13 13 14
18 19 18 16 17 19 17 18 18 18 17 18 19 18 17 16 18 18 16 15 15 15 14 14 14 14 14 14 14 12 12 12 12 12 13 12 12 13 13 13 13 12 12 13 13 13 13 14 14
19 18 17 16 16 17 16 18 18 19 19 19 18 18 16 17 18 16 16 16 15 15 14 13 13 14 13 13 13 12 12 11 11 12 12 12 11 12 12 12 12 11 12 13 14 14 14 14 14
17 16 16 16 16 17 16 17 18 18 19 20 19 18 16 16 17 16 15 15 15 14 13 12 12 13 12 12 11 11 11 11 11 11 12 11 11 11 11 11 12 12 12 13 14 14 14 14 15
16 16 15 15 16 19 18 18 18 18 19 19 18 18 16 16 16 15 14 14 14 13 13 12 11 11 10 10 10 11 11 11 11 12 11 11 11 11 11 11 11 12 13 13 13 14 14 15 16
16 15 15 14 15 16 16 17 18 17 20 19 18 17 15 15 15 13 12 13 14 14 13 12 12 11 10 9 10 11 12 12 12 11 11 10 10 11 11 11 11 11 12 12 13 13 15 15 16
16 15 15 15 15 15 16 18 18 18 20 19 17 14 14 14 14 14 13 13 13 13 13 13 12 11 11 11 11 12 12 11 11 11 10 10 11 11 11 11 10 11 11 12 12 13 14 16 16
16 16 15 16 15 16 17 17 17 16 16 17 16 14 14 15 15 14 13 13 13 14 13 13 11 10 11 11 11 11 12 11 11 11 11 10 10 10 10 10 10 11 11 12 13 14 15 15 16
16 15 16 16 17 17 17 17 17 17 18 17 15 15 14 15 15 14 14 13 14 14 13 12 11 11 12 12 11 12 12 12 12 11 11 11 10 10 11 11 11 11 11 12 13 14 15 15 15
17 17 17 17 18 17 17 18 17 16 15 16 14 15 16 16 15 15 14 14 14 14 13 13 12 12 12 12 12 13 13 13 13 13 12 11 10 10 11 11 12 12 13 14 13 14 14 15 16
18 18 19 20 18 17 18 18 15 17 16 17 17 17 17 16 16 16 15 14 15 14 13 13 13 13 13 12 13 13 14 15 14 13 13 12 12 11 11 11 11 12 13 14 14 14 14 14 15
Wind_Direction
199 202 138 121 113 76 71 330 280 285 291 295 299 303 303 300 299 301 303 303 304 303 295 289 285 282 282 281 280 278 273 273 274 271 270 265 260 255 248 239 237 238 236 233 230 229 232 230 230
205 210 179 150 78 38 57 255 272 286 291 299 304 306 303 305 305 303 303 305 303 303 299 294 285 282 281 280 279 275 270 274 270 269 271 269 265 257 250 241 238 238 238 237 230 234 231 232 232
195 197 193 211 345 324 277 265 281 289 298 302 306 305 302 307 309 305 302 303 303 303 300 297 291 288 286 282 279 274 269 269 268 266 266 267 267 263 251 245 243 241 236 235 236 240 236 233 231
211 199 189 208 265 284 270 282 290 290 303 306 307 306 304 307 309 308 306 308 306 304 300 296 295 291 288 286 281 277 271 267 267 264 261 261 263 263 252 245 243 241 236 235 240 243 245 239 232
212 217 211 218 244 268 271 277 281 287 298 305 305 304 303 306 308 308 308 311 307 306 299 293 292 295 290 286 283 279 274 270 267 264 260 256 256 260 257 247 242 241 239 237 240 246 247 245 238
218 227 238 245 251 276 280 281 286 287 292 297 299 300 301 304 304 307 307 306 307 307 299 291 290 291 289 289 286 281 279 273 270 266 264 257 255 257 255 249 244 241 240 240 239 244 244 243 244
212 232 240 248 254 266 275 284 287 286 284 289 295 299 298 300 304 306 307 307 307 304 295 290 291 292 290 289 286 282 279 275 271 269 270 265 260 256 256 250 243 239 242 245 244 243 241 244 245
214 229 231 236 255 273 276 274 281 284 288 289 294 298 296 300 304 306 306 308 308 304 297 290 288 289 290 288 285 283 278 275 272 270 269 265 262 257 253 245 241 239 242 247 247 247 243 243 247
226 232 232 235 255 266 275 279 283 289 294 297 299 294 297 302 301 301 303 305 305 304 299 293 289 289 290 288 287 287 280 273 272 271 268 265 263 259 251 239 241 241 243 248 249 253 249 249 250
236 243 243 243 256 264 268 273 280 288 292 295 294 292 294 298 299 298 302 304 304 305 299 292 296 294 290 288 287 286 282 278 277 275 273 268 262 258 251 239 240 241 242 245 249 250 249 251 252
251 251 248 248 258 266 272 272 277 285 289 290 288 290 292 294 295 296 298 298 300 302 299 298 298 298 295 290 287 285 285 283 281 277 278 268 262 254 248 245 242 243 242 244 250 252 251 251 250
249 251 255 253 260 268 274 277 278 283 287 283 283 290 291 294 295 293 294 297 298 300 298 299 301 299 299 296 291 287 286 286 284 278 277 269 263 254 249 247 245 247 246 249 252 250 252 251 251
248 251 255 260 266 274 277 284 287 284 286 287 286 287 289 290 289 288 291 294 295 295 295 298 299 299 299 296 293 290 287 286 286 281 278 267 259 255 252 249 251 255 255 256 254 253 256 255 253
250 253 255 259 269 275 279 282 287 289 289 290 290 289 288 292 290 288 285 286 291 294 296 296 297 297 295 292 291 292 289 288 288 283 277 263 258 259 258 257 257 256 260 260 261 261 260 259 259
252 255 257 262 274 278 281 286 290 295 291 289 286 288 289 289 287 286 282 284 287 290 291 294 295 296 296 292 291 292 291 287 286 280 273 264 260 262 262 259 258 258 260 260 260 261 264 264 263
254 260 266 269 276 282 283 284 288 294 292 289 288 288 288 288 288 285 283 281 285 286 287 291 291 292 293 292 292 291 289 286 284 279 271 267 262 263 262 260 261 263 261 259 258 259 262 263 262
259 265 270 274 279 281 280 282 283 287 288 288 287 287 287 287 286 286 281 282 285 285 284 286 290 291 292 290 290 288 288 286 282 278 270 267 265 267 265 264 263 268 268 263 260 261 261 258 258
256 259 263 268 271 276 280 284 283 285 284 287 285 284 285 284 285 283 283 285 284 283 282 283 289 291 291 290 288 286 286 284 280 275 271 270 271 269 267 267 268 271 272 266 262 264 263 259 259
253 253 255 261 269 273 278 282 283 286 287 287 287 284 283 280 280 282 282 284 285 285 286 286 289 291 291 289 287 284 282 279 277 275 274 275 274 272 270 272 272 272 273 269 266 264 264 261 263
251 252 254 259 269 275 278 283 284 281 286 288 289 284 280 276 274 276 281 282 285 282 284 286 287 287 287 288 286 282 280 279 277 277 276 278 277 273 270 275 274 273 273 271 272 271 266 265 268
253 253 255 259 265 271 275 278 279 277 280 285 286 283 280 274 273 278 280 284 284 285 289 290 286 286 284 285 283 282 281 280 279 279 280 280 279 279 275 277 277 275 276 272 271 273 267 266 267
253 255 258 261 264 267 272 276 276 277 281 281 283 282 275 274 270 273 279 283 283 284 285 286 288 290 286 284 283 282 283 282 282 284 285 283 281 282 278 276 275 274 277 277 274 273 269 269 269
256 256 259 262 265 263 263 269 274 275 280 283 286 284 281 279 272 276 279 279 281 284 288 290 287 292 288 281 279 282 284 284 286 286 285 282 280 280 280 280 276 274 277 279 278 276 272 271 271
254 259 259 259 261 262 259 260 271 278 283 287 289 284 284 281 276 280 279 279 281 284 290 292 289 291 295 285 280 281 284 284 286 288 286 286 282 279 283 285 281 278 277 279 278 277 275 274 275
248 253 257 257 263 268 271 262 264 273 277 281 282 278 281 277 273 274 275 277 277 279 285 289 286 284 290 293 286 284 284 284 287 288 289 289 287 286 286 288 287 284 282 281 280 279 275 274 275
245 247 252 261 269 271 270 265 266 275 277 275 275 279 282 275 271 273 275 278 275 276 279 283 285 281 284 290 294 286 288 288 288 289 289 288 287 288 290 290 291 290 289 288 286 281 278 276 275
248 249 252 259 264 264 264 270 275 281 277 279 274 274 274 275 272 272 276 280 278 277 276 282 283 282 286 287 290 292 292 293 292 291 290 291 293 292 289 290 288 293 295 292 289 285 284 281 278
251 248 251 254 262 262 266 267 275 278 278 277 275 278 277 273 272 270 275 276 276 277 278 282 279 283 290 292 290 290 291 294 296 294 294 293 292 292 292 290 286 292 297 296 290 285 284 283 284
245 244 247 253 256 262 265 267 270 267 272 273 273 272 274 275 272 269 274 274 273 274 276 279 280 282 286 289 291 290 289 292 296 294 295 292 293 295 294 293 291 294 295 295 295 290 287 286 285
248 246 249 253 257 259 266 269 271 269 269 272 273 275 274 271 270 269 271 271 271 271 275 278 276 277 280 284 287 290 290 290 292 291 290 288 287 289 294 297 296 297 296 296 298 297 294 293 293
Height
5885 5886 5887 5888 5889 5889 5888 5891 5890 5888 5887 5886 5886 5885 5883 5882 5882 5883 5880 5878 5878 5877 5875 5875 5874 5874 5874 5873 5873 5872 5872 5872 5872 5872 5872 5872 5871 5871 5871 5872 5872 5872 5872 5872 5873 5873 5873 5873 5874
5885 5886 5887 5888 5888 5888 5889 5889 5889 5888 5886 5885 5885 5884 5882 5881 5880 5880 5878 5877 5877 5876 5874 5874 5873 5872 5872 5871 5871 5871 5871 5871 5871 5871 5871 5870 5870 5870 5870 5871 5871 5871 5871 5872 5872 5872 5872 5872 5873
5884 5885 5886 5887 5887 5888 5889 5888 5887 5886 5884 5884 5883 5882 5881 5880 5879 5878 5877 5876 5875 5874 5873 5872 5871 5871 5870 5870 5869 5869 5869 5869 5869 5869 5869 5869 5869 5869 5869 5869 5869 5870 5870 5870 5871 5871 5871 5871 5872
5883 5884 5886 5887 5887 5888 5887 5887 5886 5885 5884 5883 5882 5881 5880 5879 5877 5877 5875 5873 5873 5873 5872 5871 5870 5869 5869 5868 5867 5867 5867 5867 5867 5867 5867 5867 5867 5868 5868 5868 5868 5868 5869 5869 5869 5870 5870 5870 5870
5881 5883 5884 5886 5887 5887 5886 5886 5886 5885 5883 5882 5881 5879 5878 5876 5876 5875 5874 5873 5872 5871 5870 5869 5868 5867 5867 5866 5866 5865 5865 5865 5865 5865 5865 5865 5865 5865 5865 5866 5866 5866 5867 5867 5868 5868 5869 5869 5869
5881 5882 5884 5884 5886 5886 5885 5884 5884 5884 5882 5881 5879 5877 5876 5875 5873 5873 5872 5871 5870 5869 5867 5866 5866 5865 5865 5864 5864 5863 5863 5863 5863 5863 5863 5863 5863 5863 5863 5864 5864 5864 5865 5866 5866 5867 5867 5867 5868
5880 5881 5882 5883 5885 5885 5884 5882 5882 5881 5880 5879 5877 5875 5874 5873 5871 5871 5869 5868 5867 5866 5865 5864 5864 5863 5862 5862 5861 5861 5861 5860 5860 5860 5860 5860 5860 5861 5861 5861 5862 5862 5863 5864 5864 5865 5865 5865 5866
5877 5880 5881 5883 5884 5884 5882 5880 5880 5879 5878 5877 5876 5874 5872 5872 5870 5869 5868 5866 5865 5864 5862 5862 5861 5861 5860 5860 5859 5859 5858 5858 5858 5858 5858 5858 5858 5858 5858 5859 5859 5860 5861 5861 5862 5863 5863 5863 5864
5876 5879 5879 5881 5883 5882 5880 5878 5878 5877 5876 5875 5874 5872 5870 5870 5869 5867 5866 5864 5863 5860 5859 5859 5859 5859 5858 5857 5857 5856 5856 5856 5856 5856 5855 5855 5855 5855 5856 5856 5857 5858 5858 5859 5860 5860 5861 5861 5862
5875 5876 5878 5878 5879 5879 5877 5877 5876 5875 5874 5873 5872 5869 5868 5868 5866 5865 5863 5862 5861 5859 5858 5857 5857 5856 5856 5855 5854 5854 5854 5854 5853 5853 5853 5853 5853 5853 5853 5854 5855 5855 5856 5857 5858 5858 5859 5859 5860
5873 5874 5875 5875 5875 5875 5874 5874 5873 5872 5872 5871 5869 5867 5865 5865 5864 5862 5861 5860 5859 5857 5856 5855 5855 5854 5853 5853 5852 5852 5852 5851 5851 5850 5850 5849 5850 5850 5851 5852 5852 5853 5854 5855 5855 5856 5857 5857 5858
5871 5872 5873 5873 5873 5872 5871 5870 5869 5869 5869 5868 5866 5864 5863 5862 5861 5860 5859 5857 5856 5855 5854 5853 5852 5852 5851 5850 5849 5849 5849 5849 5848 5847 5847 5846 5847 5847 5848 5849 5850 5851 5852 5852 5853 5854 5854 5855 5856
5868 5869 5869 5870 5870 5869 5868 5868 5866 5866 5865 5864 5863 5860 5860 5858 5857 5857 5856 5855 5854 5853 5852 5850 5850 5849 5848 5847 5847 5847 5846 5846 5845 5845 5844 5844 5845 5845 5846 5847 5848 5849 5850 5850 5850 5851 5852 5853 5853
5865 5865 5865 5866 5866 5866 5865 5865 5864 5862 5862 5861 5860 5858 5857 5855 5853 5853 5853 5852 5851 5849 5849 5848 5848 5847 5845 5844 5844 5844 5843 5843 5843 5842 5842 5842 5842 5843 5843 5844 5845 5846 5847 5847 5848 5848 5849 5850 5851
5861 5861 5862 5863 5863 5863 5862 5862 5861 5859 5859 5857 5856 5855 5853 5852 5851 5850 5849 5848 5847 5846 5846 5845 5845 5844 5843 5841 5841 5841 5841 5840 5840 5840 5840 5839 5840 5840 5841 5842 5843 5843 5843 5844 5845 5845 5846 5847 5848
5857 5858 5859 5860 5860 5860 5861 5859 5859 5857 5856 5854 5853 5851 5850 5848 5846 5845 5845 5845 5843 5843 5843 5842 5842 5841 5840 5839 5839 5839 5838 5838 5837 5837 5837 5837 5837 5838 5839 5840 5840 5840 5840 5841 5842 5842 5843 5844 5844
5854 5856 5857 5857 5857 5857 5857 5856 5856 5854 5852 5851 5849 5848 5847 5845 5843 5842 5841 5841 5841 5840 5840 5840 5839 5839 5838 5837 5836 5836 5835 5835 5835 5835 5835 5835 5835 5836 5837 5837 5837 5838 5838 5838 5839 5839 5840 5840 5841
5852 5854 5855 5855 5855 5854 5853 5852 5851 5849 5848 5847 5846 5844 5844 5842 5840 5838 5837 5837 5837 5837 5837 5837 5836 5836 5835 5834 5834 5833 5833 5832 5832 5833 5833 5833 5833 5834 5834 5834 5835 5835 5835 5835 5836 5836 5837 5837 5838
5849 5851 5852 5852 5851 5851 5849 5848 5847 5846 5845 5843 5842 5841 5840 5839 5837 5835 5835 5834 5834 5834 5834 5834 5833 5833 5832 5831 5831 5831 5830 5830 5830 5830 5830 5831 5831 5831 5831 5832 5832 5832 5832 5832 5832 5833 5834 5834 5835
5844 5846 5847 5847 5847 5847 5845 5844 5844 5842 5841 5839 5838 5836 5835 5835 5834 5833 5832 5831 5832 5832 5831 5831 5831 5831 5830 5829 5829 5829 5828 5828 5828 5828 5828 5828 5828 5828 5828 5828 5829 5829 5829 5829 5829 5830 5830 5831 5831
5840 5841 5841 5842 5843 5842 5841 5841 5840 5838 5836 5835 5834 5833 5832 5831 5829 5830 5829 5829 5829 5829 5829 5828 5828 5827 5827 5827 5826 5826 5826 5826 5825 5825 5825 5825 5825 5825 5825 5825 5826 5826 5826 5826 5827 5827 5827 5827 5828
5835 5836 5837 5838 5837 5837 5838 5836 5835 5833 5832 5831 5830 5828 5828 5828 5827 5827 5827 5827 5827 5827 5827 5826 5825 5824 5824 5824 5824 5824 5824 5823 5823 5823 5823 5823 5823 5822 5822 5822 5823 5823 5823 5823 5823 5824 5824 5824 5824
5830 5832 5832 5833 5833 5833 5832 5832 5831 5828 5827 5827 5826 5825 5825 5824 5823 5823 5823 5824 5824 5824 5824 5823 5822 5822 5821 5821 5822 5822 5821 5821 5821 5821 5821 5820 5820 5820 5820 5819 5819 5820 5820 5820 5820 5820 5820 5821 5821
5826 5827 5828 5829 5828 5828 5827 5827 5827 5825 5824 5823 5823 5821 5821 5821 5820 5820 5821 5821 5821 5821 5821 5821 5820 5819 5819 5819 5819 5819 5819 5819 5819 5819 5818 5818 5818 5817 5817 5817 5817 5817 5817 5816 5817 5817 5817 5817 5817
5822 5824 5825 5825 5825 5824 5823 5822 5823 5822 5821 5820 5819 5818 5818 5818 5818 5818 5818 5819 5819 5819 5819 5819 5818 5818 5818 5817 5817 5817 5817 5817 5817 5816 5816 5816 5815 5815 5814 5814 5814 5814 5813 5813 5813 5813 5813 5813 5813
5818 5820 5822 5822 5822 5822 5820 5818 5819 5818 5817 5816 5814 5814 5814 5814 5814 5814 5815 5816 5816 5816 5817 5816 5816 5816 5816 5816 5816 5815 5815 5815 5814 5814 5814 5813 5813 5812 5812 5811 5811 5811 5811 5810 5810 5810 5810 5809 5809
5815 5816 5818 5819 5818 5818 5817 5815 5815 5814 5812 5812 5811 5811 5811 5812 5811 5811 5812 5813 5814 5814 5814 5814 5813 5814 5814 5814 5814 5814 5813 5813 5812 5812 5811 5811 5810 5810 5810 5809 5809 5808 5808 5808 5807 5807 5806 5806 5805
5811 5812 5813 5813 5813 5813 5814 5812 5812 5811 5810 5809 5807 5808 5808 5808 5808 5808 5810 5810 5811 5811 5811 5811 5811 5812 5812 5812 5812 5811 5811 5811 5810 5810 5809 5809 5808 5808 5807 5807 5806 5806 5805 5805 5804 5803 5803 5802 5802
5807 5808 5808 5809 5809 5810 5810 5811 5809 5808 5807 5806 5805 5806 5806 5805 5806 5806 5806 5807 5808 5808 5808 5808 5808 5809 5809 5809 5809 5809 5809 5808 5808 5807 5807 5807 5806 5806 5805 5804 5804 5803 5803 5802 5801 5800 5799 5799 5798
5802 5803 5805 5805 5805 5806 5805 5808 5804 5804 5804 5803 5803 5803 5803 5803 5803 5803 5803 5804 5804 5805 5805 5805 5806 5806 5806 5806 5806 5806 5806 5805 5805 5805 5804 5804 5804 5803 5803 5802 5802 5801 5800 5799 5798 5797 5796 5796 5795